ATLAS 5 CENTAUR DEB, 44849

Orbit data source: Space-Track

ATLAS 5 CENTAUR DEB, 44849 is space debris in HEO originally from a launch on Wed, 17 Sep 2014 UTC launched from the Air Force Eastern Test Range (AFETR). Debris objects in space refer to the collection of defunct objects orbiting the Earth. Examples of debris include non-operational satellites, rocket bodies, and fragments generated from explosions, collisions, or faulty payload assembly.

Loading next visibility...
Identifier
44849, 2014-055CH
Orbit
HEO
Country
Flag of USUS
Related business
Flag of USUnited Launch Alliance/Lockheed Martin (US)
Manufacturer
Unknown
Mission
Spacecraft
Bus & Motor
Unknown
Mass
Unknown
Launch date (UTC)
2014-09-17 (11 years ago)
Launch vehicle
Unknown
Launch site
Air Force Eastern Test Range (AFETR)
Object type
Payload
Rocket body
Debris
Shape & HBR
Unknown shape, 1.1 m
Radar Cross Section
RCS unknown

Expand to show TLE details & history
Last TLE update: 1 week ago

TLE from 1 week ago
0 ATLAS 5 CENTAUR DEB
1 44849U 14055CH  25278.72693016  .00000030  00000-0  00000-0 0  9995
2 44849  20.9952 114.6670 5008575 217.0646  94.7930  1.95522594 44023
Epoch: 2025-10-05T17:26Z
TLE epoch observation values (Epoch: 2025-10-05T17:26:46.765Z)
Latitude
-0.00002°
Longitude
-161.62389°
Altitude
27,305.283 km
Speed
2.986 km/s
True Right ascension
07h 38m 50s
True Declination
0° 00' 00"
Sunlit
Object was in daylight at epoch
Visualization orbit readout
Latitude
Unknown
Longitude
Unknown
Altitude
Unknown
Speed
Unknown
Apparent Right ascension
Unknown
Apparent Declination
Unknown
Sunlit
N/A
Visualization observer readout
Local Sidereal Time
04:55:41
Azimuth
Unknown
Elevation
Unknown
Doppler factor
Unknown
Orbital elements
Apogee altitude
34,170.498 km
Perigee altitude
7,107.185 km
Semi-major axis
27,016.979 km
Eccentricity
0.50086
Inclination
20.9952°
RAAN
114.667°
Arg. of periapsis
217.0646°
True anomaly
142.97275°
Mean anomaly
94.793°
Eccentric anomaly
119.71613°
Mean motion
0.48875 °/min
Orbital period
736.57 mins
BSTAR
0
Loading maneuver chart data...
Computing Atmospheric mass density...
Loading historical data...
Loading historical data...
Loading historical data...
Loading historical data...
Loading historical data...
Loading historical data...
Loading historical data...

Documentation

Showing up to 5 results
|